Regional Weather Roundup
Issued by NWS

Home | Current Version | Previous Version | Text Only | Print | Product List | Glossary On
Versions: 1 2 3 4 5 6 7 8 9 10 11 12 13 14 15 16 17 18 19 20 21 22 23 24 25 26 27 28 29 30 31 32 33 34 35 36 37 38 39 40 41 42 43 44 45 46 47 48 49 50
000
ASUS43 KDTX 230710
RWRMI
MICHIGAN HOURLY REGIONAL WEATHER ROUNDUP
NATIONAL WEATHER SERVICE DETROIT/PONTIAC MI
200 AM EST SUN NOV 23 2014

NOTE: "FAIR" INDICATES FEW OR NO CLOUDS BELOW 12,000 FEET WITH NO
SIGNIFICANT WEATHER AND/OR OBSTRUCTION TO VISIBILITY.

MIZ047>049-052>055-059>063-066>070-074>076-081>083-230800-
SOUTHEAST LOWER MICHIGAN

CITY           SKY/WX    TMP DP  RH WIND       PRES   REMARKS
ADRIAN         CLOUDY    47  40  76 SW10      29.96F
ALMA           CLOUDY    43  43  99 S8        29.88S FOG
ANN ARBOR      CLOUDY    45  40  82 SW5       29.94F
BAD AXE        CLOUDY    45  45 100 SW5       29.90S FOG
CARO           CLOUDY    45  45 100 S5        29.89F
DETROIT CITY   CLOUDY    52  41  66 SW12      29.95F
DETROIT        CLOUDY    48  41  76 S10       29.96F
FLINT          CLOUDY    50  44  80 S9        29.92R
GROSSE ILE     CLOUDY    41  37  87 S8        29.95F
HILLSDALE      CLOUDY    51  45  80 SW9       29.93F
HOWELL         CLOUDY    49  45  84 SW9       29.91S

CITY           SKY/WX    TMP DP  RH WIND       PRES   REMARKS
JACKSON        CLOUDY    50  43  77 SW10      29.92F
LAMBERTVILLE   CLOUDY    52  37  58 S7        29.97F
LANSING        CLOUDY    50  44  80 S10       29.91R
LAPEER         CLOUDY    46  43  90 SW5       29.91F
MASON          CLOUDY    50  44  79 SW7       29.91S
MONROE         CLOUDY    52  39  62 SW8       29.94F
MT. CLEMENS    CLOUDY    48  45  88 S8        29.92F
PONTIAC        CLOUDY    48  41  76 SW7       29.92F
PORT HOPE        N/A     46  43  89 VRB3      29.87S
PORT HURON     PTCLDY    39  39 100 S5        29.94S FOG
TRI CITIES     MOCLDY    46  43  89 S6        29.88F
TROY           CLOUDY    48  43  81 SW6       29.95S
SAGINAW HB     CLOUDY    45  45 100 S7        29.88F
$$
MIZ043>046-050>051-056>058-064>065-071>073-077>080-230800-
SOUTHWEST LOWER MICHIGAN

CITY           SKY/WX    TMP DP  RH WIND       PRES   REMARKS
BATTLE CREEK   CLOUDY    51  43  74 SW16      29.91S
BENTON HARBOR  CLOUDY    50  45  83 S9        29.88S
BIG RAPIDS     CLOUDY    42  42 100 S5        29.82F FOG
COLDWATER      CLOUDY    51  45  79 SW10G16   29.93S
FREMONT        CLOUDY    46  45  96 S6        29.82F
HOLLAND        CLOUDY    54  46  74 S16G24    29.87S
GRAND RAPIDS   CLOUDY    47  43  86 S12       29.88S
IONIA          CLOUDY    46  44  94 SW9       29.87F
KALAMAZOO      CLOUDY    50  43  77 SW14      29.90F
LUDINGTON      CLOUDY    49  47  91 S12       29.79F
MARSHALL       CLOUDY    49  43  79 SW9G17    29.91S
MOUNT PLEASANT MOCLDY    44  43  97 S5        29.84F FOG
MUSKEGON       CLOUDY    50  45  83 S17G29    29.83F
SOUTH HAVEN    CLOUDY    52  47  81 SW9       29.88S
$$
MIZ016>042-230800-
NORTHERN LOWER MICHIGAN

CITY           SKY/WX    TMP DP  RH WIND       PRES   REMARKS
ALPENA         CLOUDY    39  39 100 SW6       29.84S FOG     WCI  35
BEAVER ISLAND  CLOUDY    40  39  97 CALM      29.77F FOG
BELLAIRE       FOG       36  35  96 CALM      29.81S VSB 1/2
CADILLAC       FOG       40  40 100 S7        29.79F VSB 1/4
CHARLEVOIX     CLOUDY    39  39 100 SE7       29.81F FOG     WCI  34
FRANKFORT      CLOUDY    43  43  98 SE6       29.77F FOG
GAYLORD        CLOUDY    37  36  96 S3        29.80F
GRAYLING       FOG       37  37 100 S3        29.83F VSB 3/4
HARBOR SPRINGS CLOUDY    39  38  99 CALM      29.79F FOG
HOUGHTON LAKE  FOG       40  39  97 CALM      29.83S VSB 1/4
MANISTEE       CLOUDY    45  43  93 SE3       29.79F
OSCODA         FOG       39  39 100 CALM      29.85F VSB 1/2
PELLSTON       CLOUDY    40  39  97 CALM      29.81S FOG
ROGERS CITY    CLOUDY    38  38 100 CALM      29.85R FOG
TRAVERSE CITY  CLOUDY    41  39  93 SE3       29.78F FOG
$$
MIZ007>008-015-230800-
EASTERN UPPER MICHIGAN

CITY           SKY/WX    TMP DP  RH WIND       PRES   REMARKS
KINROSS        CLOUDY    34  34 100 CALM      29.79F
MACKINAC ISLAN FOG       38  38 100 S5        29.80S VSB 1/2 WCI  35
NEWBERRY       CLOUDY    34  34  99 S7        29.76F FOG     WCI  28
S. S. MARIE    CLOUDY    34  32  92 CALM      29.79S FOG
MUNISING         N/A     37  33  85 S7        29.70F WCI  32
$$
MIZ004>006-011>014-085-230800-
CENTRAL UPPER MICHIGAN

CITY           SKY/WX    TMP DP  RH WIND       PRES   REMARKS
MANISTIQUE     FOG       36  36  99 S5        29.74F VSB 3/4 WCI  32
ESCANABA       CLOUDY    37  34  87 S5        29.73F WCI  34
MENOMINEE      CLOUDY    37  36  93 SE3       29.71F VSB 1/2
SAWYER-GWINN   CLOUDY    34  32  94 S10       29.67F FOG     WCI  26
$$
MIZ001>003-009>011-084-230800-
WESTERN UPPER MICHIGAN

CITY           SKY/WX    TMP DP  RH WIND       PRES   REMARKS
IRON MOUNTAIN  FOG       34  33  96 SE8       29.66F VSB 1/2 WCI  27
HOUGHTON       CLOUDY    33  29  85 S7        29.63F WCI  27
COPPER HARBOR    N/A     38  32  79 S7        29.63F WCI  33
IRONWOOD       CLOUDY    37  36  93 S10G16    29.55F WCI  30
$$

ABBREVIATIONS USED IN REMARKS
   TC - TEMPERATURE IN CELSIUS
  WCI - WIND CHILL INDEX
   HX - HEAT INDEX
  VSB - VISIBILITY




USA.gov is the U.S. government's official web portal to all federal, state and local government web resources and services.